EN

Hourly Weather Godzikowo

Today, 16 May, Sunday

Time Temperature Precipitation Wind Pressure Humidity
00:00 +8°C° 0 mm 2 mps 745 mmHg 94%
01:00 +8°C° 0 mm 2 mps 744 mmHg 94%
02:00 +8°C° 0 mm 2 mps 744 mmHg 93%
03:00 +8°C° 0 mm 3 mps 744 mmHg 93%
04:00 +8°C° 0 mm 3 mps 744 mmHg 92%
05:00 +10°C° 0 mm 3 mps 744 mmHg 88%
06:00 +11°C° 0 mm 4 mps 744 mmHg 84%
07:00 +12°C° 0 mm 4 mps 744 mmHg 80%
08:00 +12°C° 0.3 mm 4 mps 744 mmHg 84%
09:00 +12°C° 0.3 mm 4 mps 744 mmHg 87%
10:00 +12°C° 0.3 mm 4 mps 744 mmHg 90%
11:00 +14°C° 0.6 mm 4 mps 743 mmHg 87%
12:00 +15°C° 0.6 mm 5 mps 743 mmHg 84%
13:00 +16°C° 0.6 mm 5 mps 743 mmHg 81%
14:00 +16°C° 0.7 mm 5 mps 742 mmHg 82%
15:00 +17°C° 0.7 mm 4 mps 742 mmHg 83%
16:00 +17°C° 0.7 mm 4 mps 742 mmHg 84%
17:00 +16°C° 0.4 mm 3 mps 742 mmHg 87%
18:00 +14°C° 0.4 mm 3 mps 742 mmHg 90%
19:00 +14°C° 0.4 mm 2 mps 741 mmHg 93%
20:00 +14°C° 0.3 mm 2 mps 741 mmHg 93%
21:00 +13°C° 0.3 mm 2 mps 742 mmHg 94%
22:00 +13°C° 0.3 mm 2 mps 742 mmHg 94%
23:00 +12°C° 0.1 mm 2 mps 742 mmHg 94%

Tomorrow, 17 May, Monday

Time Temperature Precipitation Wind Pressure Humidity
00:00 +12°C° 0.1 mm 2 mps 742 mmHg 94%
01:00 +12°C° 0.1 mm 2 mps 742 mmHg 95%
02:00 +10°C° 0 mm 2 mps 742 mmHg 95%
03:00 +9°C° 0 mm 2 mps 742 mmHg 95%
04:00 +9°C° 0 mm 2 mps 743 mmHg 95%
05:00 +10°C° 0 mm 2 mps 743 mmHg 91%
06:00 +13°C° 0 mm 2 mps 743 mmHg 87%
07:00 +14°C° 0 mm 2 mps 743 mmHg 83%
08:00 +15°C° 0 mm 2 mps 743 mmHg 75%
09:00 +17°C° 0 mm 2 mps 743 mmHg 67%
10:00 +18°C° 0 mm 2 mps 743 mmHg 59%
11:00 +19°C° 0 mm 2 mps 743 mmHg 56%
12:00 +19°C° 0 mm 2 mps 743 mmHg 53%
13:00 +20°C° 0 mm 2 mps 743 mmHg 50%
14:00 +19°C° 0 mm 2 mps 743 mmHg 56%
15:00 +19°C° 0 mm 2 mps 742 mmHg 62%
16:00 +18°C° 0 mm 2 mps 742 mmHg 67%
17:00 +17°C° 0 mm 2 mps 742 mmHg 71%
18:00 +16°C° 0 mm 2 mps 742 mmHg 74%
19:00 +15°C° 0 mm 2 mps 742 mmHg 78%
20:00 +14°C° 0 mm 2 mps 742 mmHg 82%
21:00 +13°C° 0 mm 2 mps 742 mmHg 86%
22:00 +12°C° 0 mm 2 mps 741 mmHg 91%
23:00 +12°C° 0 mm 2 mps 741 mmHg 89%

Day after tomorrow, 18 May, Tuesday

Time Temperature Precipitation Wind Pressure Humidity
00:00 +12°C° 0 mm 2 mps 741 mmHg 88%
01:00 +13°C° 0 mm 2 mps 741 mmHg 86%
02:00 +13°C° 0 mm 1 mps 741 mmHg 87%
03:00 +12°C° 0 mm 1 mps 741 mmHg 88%
04:00 +12°C° 0 mm 1 mps 740 mmHg 89%
05:00 +13°C° 0 mm 1 mps 740 mmHg 88%
06:00 +13°C° 0 mm 2 mps 740 mmHg 86%
07:00 +13°C° 0 mm 3 mps 740 mmHg 84%
08:00 +14°C° 0 mm 3 mps 740 mmHg 82%
09:00 +14°C° 0 mm 4 mps 740 mmHg 79%
10:00 +15°C° 0 mm 4 mps 740 mmHg 77%
11:00 +15°C° 0.1 mm 5 mps 741 mmHg 78%
12:00 +14°C° 0.1 mm 6 mps 741 mmHg 79%
13:00 +14°C° 0.1 mm 6 mps 741 mmHg 80%
14:00 +13°C° 0.1 mm 6 mps 742 mmHg 82%
15:00 +11°C° 0.1 mm 6 mps 742 mmHg 83%
16:00 +11°C° 0.1 mm 6 mps 742 mmHg 85%
17:00 +10°C° 0.1 mm 6 mps 743 mmHg 87%
18:00 +9°C° 0.1 mm 5 mps 743 mmHg 89%
19:00 +9°C° 0.1 mm 5 mps 743 mmHg 92%
20:00 +8°C° 0 mm 4 mps 744 mmHg 93%
21:00 +8°C° 0 mm 4 mps 744 mmHg 94%
22:00 +8°C° 0 mm 3 mps 744 mmHg 96%
23:00 +8°C° 0 mm 3 mps 744 mmHg 96%

19 May, Wednesday

Time Temperature Precipitation Wind Pressure Humidity
00:00 +8°C° 0 mm 3 mps 745 mmHg 96%
01:00 +7°C° 0 mm 3 mps 745 mmHg 96%
02:00 +7°C° 0 mm 3 mps 745 mmHg 97%
03:00 +7°C° 0 mm 3 mps 745 mmHg 97%
04:00 +7°C° 0 mm 3 mps 745 mmHg 97%
05:00 +8°C° 0 mm 3 mps 745 mmHg 92%
06:00 +8°C° 0 mm 4 mps 746 mmHg 88%
07:00 +10°C° 0 mm 4 mps 746 mmHg 83%
08:00 +11°C° 0 mm 4 mps 746 mmHg 79%
09:00 +12°C° 0 mm 5 mps 746 mmHg 74%
10:00 +13°C° 0 mm 5 mps 746 mmHg 70%
11:00 +14°C° 0 mm 5 mps 746 mmHg 68%
12:00 +14°C° 0 mm 6 mps 746 mmHg 65%
13:00 +15°C° 0 mm 6 mps 746 mmHg 63%
14:00 +14°C° 0.1 mm 6 mps 746 mmHg 66%
15:00 +14°C° 0.1 mm 6 mps 746 mmHg 68%
16:00 +13°C° 0.1 mm 6 mps 746 mmHg 71%
17:00 +11°C° 0 mm 6 mps 746 mmHg 74%
18:00 +9°C° 0 mm 5 mps 746 mmHg 77%
19:00 +8°C° 0 mm 4 mps 747 mmHg 81%
20:00 +7°C° 0 mm 4 mps 747 mmHg 84%
21:00 +6°C° 0 mm 4 mps 747 mmHg 87%
22:00 +4°C° 0 mm 3 mps 747 mmHg 90%
23:00 +4°C° 0 mm 3 mps 747 mmHg 92%

20 May, Thursday

Time Temperature Precipitation Wind Pressure Humidity
00:00 +4°C° 0 mm 3 mps 747 mmHg 93%
01:00 +4°C° 0 mm 3 mps 747 mmHg 95%
02:00 +3°C° 0 mm 3 mps 747 mmHg 95%
03:00 +3°C° 0 mm 3 mps 747 mmHg 95%
04:00 +3°C° 0 mm 3 mps 747 mmHg 96%
05:00 +5°C° 0 mm 4 mps 747 mmHg 89%
06:00 +7°C° 0 mm 4 mps 747 mmHg 83%
07:00 +10°C° 0 mm 5 mps 747 mmHg 77%
08:00 +11°C° 0 mm 6 mps 747 mmHg 72%
09:00 +13°C° 0 mm 6 mps 747 mmHg 67%
10:00 +14°C° 0 mm 6 mps 747 mmHg 63%
11:00 +15°C° 0.1 mm 6 mps 748 mmHg 61%
12:00 +15°C° 0.1 mm 6 mps 748 mmHg 60%
13:00 +15°C° 0.1 mm 6 mps 748 mmHg 58%
14:00 +15°C° 0.1 mm 5 mps 748 mmHg 61%
15:00 +14°C° 0.1 mm 5 mps 748 mmHg 64%
16:00 +14°C° 0.1 mm 5 mps 748 mmHg 67%
17:00 +12°C° 0 mm 4 mps 748 mmHg 73%
18:00 +11°C° 0 mm 3 mps 748 mmHg 80%
19:00 +9°C° 0 mm 3 mps 749 mmHg 86%
20:00 +8°C° 0 mm 2 mps 749 mmHg 88%
21:00 +7°C° 0 mm 2 mps 749 mmHg 90%
22:00 +6°C° 0 mm 2 mps 749 mmHg 92%
23:00 +6°C° 0 mm 2 mps 749 mmHg 92%

21 May, Friday

Time Temperature Precipitation Wind Pressure Humidity
00:00 +5°C° 0 mm 2 mps 749 mmHg 92%
01:00 +5°C° 0 mm 2 mps 749 mmHg 92%
02:00 +5°C° 0 mm 2 mps 748 mmHg 93%
03:00 +5°C° 0 mm 2 mps 748 mmHg 94%
04:00 +4°C° 0 mm 3 mps 748 mmHg 94%
05:00 +7°C° 0 mm 3 mps 748 mmHg 89%
06:00 +7°C° 0 mm 4 mps 748 mmHg 83%
07:00 +8°C° 0 mm 4 mps 748 mmHg 77%
08:00 +9°C° 0 mm 5 mps 748 mmHg 69%
09:00 +10°C° 0 mm 5 mps 748 mmHg 60%
10:00 +12°C° 0 mm 5 mps 748 mmHg 52%
11:00 +13°C° 0 mm 6 mps 748 mmHg 51%
12:00 +14°C° 0 mm 6 mps 748 mmHg 51%
13:00 +14°C° 0 mm 6 mps 748 mmHg 51%
14:00 +14°C° 0 mm 5 mps 747 mmHg 53%
15:00 +14°C° 0 mm 4 mps 747 mmHg 55%
16:00 +14°C° 0 mm 4 mps 747 mmHg 58%
17:00 +13°C° 0 mm 3 mps 747 mmHg 63%
18:00 +12°C° 0 mm 3 mps 747 mmHg 68%
19:00 +11°C° 0 mm 3 mps 747 mmHg 73%
20:00 +11°C° 0 mm 3 mps 747 mmHg 75%
21:00 +11°C° 0 mm 3 mps 746 mmHg 77%
22:00 +10°C° 0 mm 3 mps 746 mmHg 79%
23:00 +10°C° 0 mm 3 mps 746 mmHg 81%
Show more